Location: Amsterdam
(30.7274°N, 84.4357°W)
Time: 02:43:20
(UTC+00:00)

Courier 1B Rocket - Pass Details

Date: 13 February 2026
Orbit: 920 x 1201 km, 28.2° (Epoch: 13 March)

Event Time Altitude Azimuth Distance (km) Brightness Sun altitude
Rises 08:57:57 0° 269° (W) 3,953 - -43.9°
Reaches altitude 10° 09:01:23 10° 255° (WSW) 3,035 - -43.2°
Maximum altitude 09:06:54 22° 208° (SSW) 2,307 - -42.0°
Drops below altitude 10° 09:12:34 10° 161° (SSE) 3,115 - -40.8°
Exits shadow 09:12:40 10° 160° (SSE) 3,139 7.7 -40.8°
Sets 09:16:10 0° 147° (SSE) 4,084 8.5 -40.0°
